WESTFORD NEEDLES, 2381

Orbit data source: Space-Track

WESTFORD NEEDLES, 2381 is space debris in LEO originally from a launch on Thu, 09 May 1963 UTC launched from the Air Force Western Test Range (AFWTR). Debris objects in space refer to the collection of defunct objects orbiting the Earth. Examples of debris include non-operational satellites, rocket bodies, and fragments generated from explosions, collisions, or faulty payload assembly.

Loading next visibility...
Identifier
2381, 1963-014AB
Orbit
LEO
Country
Flag of USUS
Related business
Manufacturer
Unknown
Mission
Spacecraft
Bus & Motor
Unknown
Mass
Unknown
Launch date (UTC)
1963-05-09 (62 years ago)
Launch vehicle
Unknown
Launch site
Air Force Western Test Range (AFWTR)
Object type
Payload
Rocket body
Debris
Shape & HBR
Unknown
Radar Cross Section
Medium (>0.1 m² and <1 m²)

Expand to show TLE details & history
Last TLE update: 11 hours ago

TLE from 11 hours ago
0 WESTFORD NEEDLES
1 02381U 63014AB  25242.08079183  .00000316  00000-0  13967+0 0  9994
2 02381  87.2840 125.8248 0233911 189.2214 170.4302  8.67458570366025
Epoch: 2025-08-30T01:56Z
TLE epoch observation values (Epoch: 2025-08-30T01:56:20.414Z)
Latitude
0.00003°
Longitude
118.21953°
Altitude
3,860.442 km
Speed
6.168 km/s
True Right ascension
08h 23m 17s
True Declination
0° 00' 00"
Sunlit
Object was in daylight at epoch
Visualization orbit readout
Latitude
Unknown
Longitude
Unknown
Altitude
Unknown
Speed
Unknown
Apparent Right ascension
Unknown
Apparent Declination
Unknown
Sunlit
N/A
Visualization observer readout
Local Sidereal Time
04:35:22
Azimuth
Unknown
Elevation
Unknown
Doppler factor
Unknown
Orbital elements
Apogee altitude
3,859.105 km
Perigee altitude
3,391.13 km
Semi-major axis
10,003.255 km
Eccentricity
0.02339
Inclination
87.284°
RAAN
125.8248°
Arg. of periapsis
189.2214°
True anomaly
170.86331°
Mean anomaly
170.4302°
Eccentric anomaly
170.64798°
Mean motion
2.16936 °/min
Orbital period
165.95 mins
BSTAR
0.13967
Loading maneuver chart data...
Computing Atmospheric mass density...

Documentation

Showing up to 5 results
|